Regional Weather Roundup
Issued by NWS

Home | Current Version | Previous Version | Graphics & Text | Print | Product List | Glossary On
Versions: 1 2 3 4 5 6 7 8 9 10 11 12 13 14 15 16 17 18 19 20 21 22 23 24 25 26 27 28 29 30 31 32 33 34 35 36 37 38 39 40 41 42 43 44 45 46 47 48 49 50
000
ASUS43 KMPX 271101
RWRMN
WEATHER ROUNDUP FOR MINNESOTA
NATIONAL WEATHER SERVICE TWIN CITIES/CHANHASSEN MN
600 AM CDT SAT AUG 27 2016


NOTE: "FAIR" INDICATES FEW OR NO CLOUDS BELOW 12,000 FEET WITH NO
SIGNIFICANT WEATHER AND/OR OBSTRUCTIONS TO VISIBILITY. N/A MEANS
CURRENT SKY AND/OR WEATHER CONDITIONS ARE NOT AVAILABLE.

MNZ060>063-068>070-271200-
   Twin Cities Metro

CITY           SKY/WX    TMP DP  RH WIND       PRES   REMARKS
TWIN CITIES    CLOUDY    64  59  83 E9        30.05F
ST PAUL        CLOUDY    63  59  87 E6        30.06S
CRYSTAL        LGT RAIN  63  57  81 CALM      30.05R
BLAINE         CLOUDY    63  61  94 CALM      30.06R
LAKEVILLE      CLOUDY    59  59 100 E3        30.05S
EDEN PRAIRIE   CLOUDY    64  59  83 CALM      30.05R
LAKEVILLE      CLOUDY    59  59 100 E3        30.05S
SOUTH ST PAUL  CLOUDY    63  60  92 CALM      30.05F
LAKE ELMO      CLOUDY    61  59  94 E5        30.07S
$$
MNZ001>005-007-008-013>017-022>024-027-028-271200-
   Northwest Minnesota

CITY           SKY/WX    TMP DP  RH WIND       PRES   REMARKS
BEMIDJI        CLOUDY    59  56  88 S3        30.05S
HALLOCK        CLEAR     54  52  94 S6        29.96S
ROSEAU         PTCLDY    57  54  88 S8        29.99S
WARROAD        CLOUDY    55  52  88 S5        30.00S
THIEF RVR FALL LGT RAIN  58  55  90 SE10      30.00F
CROOKSTON      LGT RAIN  59  57  94 S6        29.99S
FOSSTON        RAIN      57  54  88 SE6       30.03S
DETROIT LAKES  CLOUDY    61  57  88 S6        30.04S
MOORHEAD       LGT RAIN  61  57  88 SE7       30.00F
PARK RAPIDS    CLOUDY    60  55  83 SE6       30.05S
MAHNOMEN       CLOUDY    60  57  91 SE7       30.02S
$$
MNZ006-009>011-018-025>026-271200-
   North Central Minnesota

CITY           SKY/WX    TMP DP  RH WIND       PRES   REMARKS
BAUDETTE       PTCLDY    55  52  89 S5        30.01F
FLAG ISLAND    PTCLDY    63  54  72 CALM      29.98S HAZE
INTL FALLS     CLOUDY    53  51  93 SE3       30.05S
WASKISH        LGT RAIN  57  55  94 CALM      30.04S
BIG FORK       CLOUDY    59  55  88 CALM      30.07S
LONGVILLE      LGT RAIN  57  55  94 CALM      30.07R
GRAND RAPIDS   CLOUDY    57  55  93 CALM      30.10S
ORR            CLOUDY    57  54  88 CALM      30.06R
COOK           CLOUDY    57  55  94 CALM      30.09S
WALKER         LGT RAIN  59  55  87 SE5       30.05F
$$
MNZ012-019>021-037-271200-
   Northeast Minnesota

CITY           SKY/WX    TMP DP  RH WIND       PRES   REMARKS
DULUTH         CLOUDY    58  54  86 CALM      30.09F
ELY            CLOUDY    55  54  94 CALM      30.09F
HIBBING        PTCLDY    51  51 100 CALM      30.09F
EVELETH        PTCLDY    55  54  97 CALM      30.10F
DULUTH HARBOR  CLOUDY    61  57  88 CALM      30.09F
TWO HARBORS    CLOUDY    55  52  88 CALM      30.09F
SILVER BAY     CLOUDY    52  52 100 CALM      30.10S
G MARAIS ARPRT MOCLDY    48  45  87 CALM      30.14S
$$
MNZ029>031-032-039>041-046>048-054>057-064-271200-
   West Central Minnesota

CITY           SKY/WX    TMP DP  RH WIND       PRES   REMARKS
FERGUS FALLS   CLOUDY    61  57  88 SE7       30.04S
WHEATON        CLOUDY    61  61 100 SE8       30.03S
MORRIS         LGT RAIN  61  57  88 SE3       30.03R
ALEXANDRIA     CLOUDY    59  57  93 SE6       30.06S
ELBOW LAKE     CLOUDY    60  57  92 E8        30.03S
WADENA         CLOUDY    57  55  94 SE3       30.04F
GLENWOOD       CLOUDY    57  57 100 CALM      30.06S
APPLETON       CLOUDY    63  57  82 CALM      30.03R
BENSON         CLOUDY    61  55  82 CALM      30.03S
ORTONVILLE     CLOUDY    61  57  88 CALM      30.01F
MADISON        LGT RAIN  61  59  94 CALM      30.02S
WILLMAR        MOCLDY    61  59  94 E3        30.05S
$$
MNZ033>034-036-042>043-049>051-058-059-271200-
   Central Minnesota

CITY           SKY/WX    TMP DP  RH WIND       PRES   REMARKS
ST CLOUD       CLOUDY    58  58 100 CALM      30.06R
SAUK CENTRE    CLOUDY    58  57  97 CALM      30.06S
PAYNESVILLE    CLOUDY    60  60 100 SE3       30.05F
AITKIN         MIX PCPN  59  55  88 CALM      30.07R
PINE RIVER     CLOUDY    59  57  94 CALM      30.09F
BRAINERD       LGT RAIN  59  56  89 CALM      30.07S
STAPLES        CLOUDY    57  55  94 SE3       30.05S
LONG PRAIRIE   CLOUDY    57  55  94 CALM      30.06S
LITTLE FALLS   CLOUDY    57  55  94 CALM      30.06S
LITCHFIELD     LGT RAIN  63  61  94 CALM      30.06S
BUFFALO        DRIZZLE   60  56  87 CALM      30.06R
MAPLE LAKE     CLOUDY    61  59  93 CALM      30.06S
HUTCHINSON     RAIN      60  60  97 CALM      30.07R
$$
MNZ037-044-045-052-053-271200-
   East Central Minnesota

CITY           SKY/WX    TMP DP  RH WIND       PRES   REMARKS
PRINCETON        N/A     61  57  88 E3        30.06S
MORA           PTCLDY    55  54  94 CALM      30.09S
CAMBRIDGE      CLOUDY    63  54  72 CALM      30.05S
RUSH CITY      CLOUDY    58  56  92 NE3       30.08S
MOOSE LAKE     CLOUDY    55  54  94 CALM      30.07S
HINCKLEY       FAIR      55  55 100 CALM      30.08S
CLOQUET        CLOUDY    55  54  94 CALM      30.09F
MCGREGOR       MOCLDY    55  54  94 CALM      30.09R
$$
MNZ071>073-080-081-089-090-097-098-271200-
   Southwest Minnesota

CITY           SKY/WX    TMP DP  RH WIND       PRES   REMARKS
MONTEVIDEO     CLOUDY    61  61 100 CALM      30.05S
GRANITE FALLS  LGT RAIN  62  60  94 SE6       30.04F
CANBY          LGT RAIN  62  59  91 CALM      30.03S
MARSHALL       LGT RAIN  60  59  96 CALM      30.02S
REDWOOD FALLS  RAIN      60  58  92 NE3       30.03F FOG
OLIVIA         LGT RAIN  59  55  88 E3        30.03F
PIPESTONE      CLOUDY    59  57  94 S1        30.03R
WINDOM         LGT RAIN  61  59  94 N6        30.03S
WORTHINGTON    CLOUDY    60  58  92 E6        30.02S
JACKSON          N/A     61  57  88 E5        30.03S FOG
TRACY          LGT RAIN  61  60  97 CALM      30.02S
$$
MNZ065>067-074>077-082>085-091>093-271200-
   South Central Minnesota

CITY           SKY/WX    TMP DP  RH WIND       PRES   REMARKS
MANKATO        MOCLDY    63  57  82 E5        30.04R
NEW ULM          N/A     61  61 100 NE5       30.03F
ST JAMES       RAIN      57  55  94 CALM      30.05R
FAIRMONT       RAIN      60  59  96 SE3       30.03S FOG
GLENCOE        CLOUDY    61  61 100 CALM      30.05S
FARIBAULT      CLOUDY    63  59  88 E3        30.05S
OWATONNA       CLOUDY    61  57  88 E5        30.04F
WASECA         LGT RAIN  59  55  88 E5        30.06R
ALBERT LEA     RAIN      61  59  94 CALM      30.05R
$$
MNZ078>079-086>088-094>096-271200-
   Southeast Minnesota

CITY           SKY/WX    TMP DP  RH WIND       PRES   REMARKS
ROCHESTER      CLOUDY    60  59  96 E7        30.07S
RED WING       MOCLDY    63  57  82 E5        30.05R
STANTON        CLOUDY    63  59  88 E3        30.03F
DODGE CENTER   CLOUDY    59  57  94 E6        30.06S
WINONA         MOCLDY    61  57  88 SE7       30.07S
AUSTIN         CLOUDY    61  57  88 E3        30.04S
PRESTON        CLOUDY    59  56  91 E7        30.07F
$$
ABBREVIATIONS USED IN REMARKS
   TC - TEMPERATURES IN CELSIUS
  WCI - WIND CHILL INDEX
   HX - HEAT INDEX
  VSB - VISIBILITY
$$




USA.gov is the U.S. government's official web portal to all federal, state and local government web resources and services.